Year,Month,Day,Hour,Minute,Value (Times are PST for temperature in C)
2015,09,23,00,00,9.70
2015,09,23,00,01,9.70
2015,09,23,00,02,9.70
2015,09,23,00,03,9.60
2015,09,23,00,04,9.60
2015,09,23,00,05,9.60
2015,09,23,00,06,9.60
2015,09,23,00,07,9.60
2015,09,23,00,08,9.60
2015,09,23,00,09,9.60
2015,09,23,00,10,9.70
2015,09,23,00,11,9.70
2015,09,23,00,12,9.70
2015,09,23,00,13,9.70
2015,09,23,00,14,9.70
2015,09,23,00,15,9.70
2015,09,23,00,16,9.70
2015,09,23,00,17,9.70
2015,09,23,00,18,9.70
2015,09,23,00,19,9.70
2015,09,23,00,20,9.70
2015,09,23,00,21,9.70
2015,09,23,00,22,9.70
2015,09,23,00,23,9.70
2015,09,23,00,24,9.70
2015,09,23,00,25,9.70
2015,09,23,00,26,9.70
2015,09,23,00,27,9.70
2015,09,23,00,28,9.60
2015,09,23,00,29,9.60
2015,09,23,00,30,9.60
2015,09,23,00,31,9.60
2015,09,23,00,32,9.60
2015,09,23,00,33,9.60
2015,09,23,00,34,9.60
2015,09,23,00,35,9.60
2015,09,23,00,36,9.60
2015,09,23,00,37,9.60
2015,09,23,00,38,9.60
2015,09,23,00,39,9.60
2015,09,23,00,40,9.60
2015,09,23,00,41,9.60
2015,09,23,00,42,9.60
2015,09,23,00,43,9.60
2015,09,23,00,44,9.60
2015,09,23,00,45,9.60
2015,09,23,00,46,9.60
2015,09,23,00,47,9.60
2015,09,23,00,48,9.60
2015,09,23,00,49,9.60
2015,09,23,00,50,9.60
2015,09,23,00,51,9.60
2015,09,23,00,52,9.60
2015,09,23,00,53,9.60
2015,09,23,00,54,9.60
2015,09,23,00,55,9.60
2015,09,23,00,56,9.60
2015,09,23,00,57,9.60
2015,09,23,00,58,9.70
2015,09,23,00,59,9.70
2015,09,23,01,00,9.70
2015,09,23,01,01,9.70
2015,09,23,01,02,9.70
2015,09,23,01,03,9.80
2015,09,23,01,04,9.80
2015,09,23,01,05,9.80
2015,09,23,01,06,9.80
2015,09,23,01,07,9.80
2015,09,23,01,08,9.80
2015,09,23,01,09,9.90
2015,09,23,01,10,9.90
2015,09,23,01,11,9.90
2015,09,23,01,12,10.00
2015,09,23,01,13,10.00
2015,09,23,01,14,10.00
2015,09,23,01,15,10.10
2015,09,23,01,16,10.10
2015,09,23,01,17,10.10
2015,09,23,01,18,10.10
2015,09,23,01,19,10.10
2015,09,23,01,20,10.20
2015,09,23,01,21,10.20
2015,09,23,01,22,10.20
2015,09,23,01,23,10.20
2015,09,23,01,24,10.20
2015,09,23,01,25,10.20
2015,09,23,01,26,10.20
2015,09,23,01,27,10.30
2015,09,23,01,28,10.30
2015,09,23,01,29,10.30
2015,09,23,01,30,10.30
2015,09,23,01,31,10.30
2015,09,23,01,32,10.40
2015,09,23,01,33,10.40
2015,09,23,01,34,10.40
2015,09,23,01,35,10.40
2015,09,23,01,36,10.40
2015,09,23,01,37,10.50
2015,09,23,01,38,10.50
2015,09,23,01,39,10.50
2015,09,23,01,40,10.50
2015,09,23,01,41,10.60
2015,09,23,01,42,10.60
2015,09,23,01,43,10.60
2015,09,23,01,44,10.60
2015,09,23,01,45,10.60
2015,09,23,01,46,10.60
2015,09,23,01,47,10.60
2015,09,23,01,48,10.70
2015,09,23,01,49,10.70
2015,09,23,01,50,10.70
2015,09,23,01,51,10.70
2015,09,23,01,52,10.70
2015,09,23,01,53,10.70
2015,09,23,01,54,10.80
2015,09,23,01,55,10.80
2015,09,23,01,56,10.80
2015,09,23,01,57,10.80
2015,09,23,01,58,10.80
2015,09,23,01,59,10.80
2015,09,23,02,00,10.80
2015,09,23,02,01,10.80
2015,09,23,02,02,10.80
2015,09,23,02,03,10.80
2015,09,23,02,04,10.80
2015,09,23,02,05,10.80
2015,09,23,02,06,10.80
2015,09,23,02,07,10.80
2015,09,23,02,08,10.80
2015,09,23,02,09,10.80
2015,09,23,02,10,10.80
2015,09,23,02,11,10.70
2015,09,23,02,12,10.70
2015,09,23,02,13,10.70
2015,09,23,02,14,10.70
2015,09,23,02,15,10.70
2015,09,23,02,16,10.70
2015,09,23,02,17,10.70
2015,09,23,02,18,10.70
2015,09,23,02,19,10.70
2015,09,23,02,20,10.70
2015,09,23,02,21,10.70
2015,09,23,02,22,10.70
2015,09,23,02,23,10.70
2015,09,23,02,24,10.60
2015,09,23,02,25,10.60
2015,09,23,02,26,10.60
2015,09,23,02,27,10.60
2015,09,23,02,28,10.60
2015,09,23,02,29,10.60
2015,09,23,02,30,10.60
2015,09,23,02,31,10.60
2015,09,23,02,32,10.60
2015,09,23,02,33,10.60
2015,09,23,02,34,10.60
2015,09,23,02,35,10.60
2015,09,23,02,36,10.50
2015,09,23,02,37,10.50
2015,09,23,02,38,10.50
2015,09,23,02,39,10.50
2015,09,23,02,40,10.50
2015,09,23,02,41,10.50
2015,09,23,02,42,10.40
2015,09,23,02,43,10.40
2015,09,23,02,44,10.40
2015,09,23,02,45,10.40
2015,09,23,02,46,10.40
2015,09,23,02,47,10.40
2015,09,23,02,48,10.40
2015,09,23,02,49,10.40
2015,09,23,02,50,10.40
2015,09,23,02,51,10.40
2015,09,23,02,52,10.40
2015,09,23,02,53,10.30
2015,09,23,02,54,10.30
2015,09,23,02,55,10.30
2015,09,23,02,56,10.30
2015,09,23,02,57,10.30
2015,09,23,02,58,10.30
2015,09,23,02,59,10.30
2015,09,23,03,00,10.30
2015,09,23,03,01,10.30
2015,09,23,03,02,10.30
2015,09,23,03,03,10.30
2015,09,23,03,04,10.30
2015,09,23,03,05,10.30
2015,09,23,03,06,10.20
2015,09,23,03,07,10.20
2015,09,23,03,08,10.20
2015,09,23,03,09,10.20
2015,09,23,03,10,10.20
2015,09,23,03,11,10.20
2015,09,23,03,12,10.20
2015,09,23,03,13,10.10
2015,09,23,03,14,10.10
2015,09,23,03,15,10.10
2015,09,23,03,16,10.10
2015,09,23,03,17,10.10
2015,09,23,03,18,10.00
2015,09,23,03,19,10.00
2015,09,23,03,20,10.00
2015,09,23,03,21,10.00
2015,09,23,03,22,10.00
2015,09,23,03,23,9.90
2015,09,23,03,24,9.90
2015,09,23,03,25,9.90
2015,09,23,03,26,9.90
2015,09,23,03,27,9.90
2015,09,23,03,28,9.80
2015,09,23,03,29,9.80
2015,09,23,03,30,9.80
2015,09,23,03,31,9.80
2015,09,23,03,32,9.80
2015,09,23,03,33,9.80
2015,09,23,03,34,9.70
2015,09,23,03,35,9.70
2015,09,23,03,36,9.70
2015,09,23,03,37,9.70
2015,09,23,03,38,9.70
2015,09,23,03,39,9.70
2015,09,23,03,40,9.60
2015,09,23,03,41,9.60
2015,09,23,03,42,9.60
2015,09,23,03,43,9.60
2015,09,23,03,44,9.60
2015,09,23,03,45,9.60
2015,09,23,03,46,9.60
2015,09,23,03,47,9.50
2015,09,23,03,48,9.50
2015,09,23,03,49,9.50
2015,09,23,03,50,9.50
2015,09,23,03,51,9.40
2015,09,23,03,52,9.40
2015,09,23,03,53,9.40
2015,09,23,03,54,9.40
2015,09,23,03,55,9.40
2015,09,23,03,56,9.40
2015,09,23,03,57,9.40
2015,09,23,03,58,9.40
2015,09,23,03,59,9.40
2015,09,23,04,00,9.40
2015,09,23,04,01,9.30
2015,09,23,04,02,9.30
2015,09,23,04,03,9.30
2015,09,23,04,04,9.30
2015,09,23,04,05,9.30
2015,09,23,04,06,9.30
2015,09,23,04,07,9.30
2015,09,23,04,08,9.30
2015,09,23,04,09,9.30
2015,09,23,04,10,9.30
2015,09,23,04,11,9.30
2015,09,23,04,12,9.30
2015,09,23,04,13,9.30
2015,09,23,04,14,9.30
2015,09,23,04,15,9.30
2015,09,23,04,16,9.30
2015,09,23,04,17,9.30
2015,09,23,04,18,9.30
2015,09,23,04,19,9.30
2015,09,23,04,20,9.30
2015,09,23,04,21,9.30
2015,09,23,04,22,9.30
2015,09,23,04,23,9.30
2015,09,23,04,24,9.30
2015,09,23,04,25,9.30
2015,09,23,04,26,9.20
2015,09,23,04,27,9.30
2015,09,23,04,28,9.20
2015,09,23,04,29,9.20
2015,09,23,04,30,9.20
2015,09,23,04,31,9.20
2015,09,23,04,32,9.20
2015,09,23,04,33,9.20
2015,09,23,04,34,9.20
2015,09,23,04,35,9.20
2015,09,23,04,36,9.20
2015,09,23,04,37,9.20
2015,09,23,04,38,9.20
2015,09,23,04,39,9.20
2015,09,23,04,40,9.20
2015,09,23,04,41,9.20
2015,09,23,04,42,9.20
2015,09,23,04,43,9.20
2015,09,23,04,44,9.20
2015,09,23,04,45,9.20
2015,09,23,04,46,9.20
2015,09,23,04,47,9.20
2015,09,23,04,48,9.20
2015,09,23,04,49,9.20
2015,09,23,04,50,9.20
2015,09,23,04,51,9.20
2015,09,23,04,52,9.20
2015,09,23,04,53,9.20
2015,09,23,04,54,9.20
2015,09,23,04,55,9.20
2015,09,23,04,56,9.20
2015,09,23,04,57,9.20
2015,09,23,04,58,9.20
2015,09,23,04,59,9.20
2015,09,23,05,00,9.20
2015,09,23,05,01,9.20
2015,09,23,05,02,9.20
2015,09,23,05,03,9.20
2015,09,23,05,04,9.20
2015,09,23,05,05,9.20
2015,09,23,05,06,9.20
2015,09,23,05,07,9.20
2015,09,23,05,08,9.30
2015,09,23,05,09,9.20
2015,09,23,05,10,9.30
2015,09,23,05,11,9.30
2015,09,23,05,12,9.30
2015,09,23,05,13,9.30
2015,09,23,05,14,9.30
2015,09,23,05,15,9.30
2015,09,23,05,16,9.30
2015,09,23,05,17,9.40
2015,09,23,05,18,9.40
2015,09,23,05,19,9.40
2015,09,23,05,20,9.40
2015,09,23,05,21,9.40
2015,09,23,05,22,9.40
2015,09,23,05,23,9.50
2015,09,23,05,24,9.50
2015,09,23,05,25,9.50
2015,09,23,05,26,9.50
2015,09,23,05,27,9.60
2015,09,23,05,28,9.60
2015,09,23,05,29,9.60
2015,09,23,05,30,9.60
2015,09,23,05,31,9.60
2015,09,23,05,32,9.60
2015,09,23,05,33,9.60
2015,09,23,05,34,9.70
2015,09,23,05,35,9.70
2015,09,23,05,36,9.70
2015,09,23,05,37,9.70
2015,09,23,05,38,9.70
2015,09,23,05,39,9.70
2015,09,23,05,40,9.70
2015,09,23,05,41,9.70
2015,09,23,05,42,9.70
2015,09,23,05,43,9.70
2015,09,23,05,44,9.70
2015,09,23,05,45,9.70
2015,09,23,05,46,9.70
2015,09,23,05,47,9.70
2015,09,23,05,48,9.80
2015,09,23,05,49,9.80
2015,09,23,05,50,9.80
2015,09,23,05,51,9.80
2015,09,23,05,52,9.80
2015,09,23,05,53,9.80
2015,09,23,05,54,9.80
2015,09,23,05,55,9.80
2015,09,23,05,56,9.80
2015,09,23,05,57,9.80
2015,09,23,05,58,9.80
2015,09,23,05,59,9.80
2015,09,23,06,00,9.80
2015,09,23,06,01,9.80
2015,09,23,06,02,9.80
2015,09,23,06,03,9.80
2015,09,23,06,04,9.80
2015,09,23,06,05,9.90
2015,09,23,06,06,9.90
2015,09,23,06,07,9.90
2015,09,23,06,08,9.90
2015,09,23,06,09,9.90
2015,09,23,06,10,9.90
2015,09,23,06,11,9.90
2015,09,23,06,12,9.90
2015,09,23,06,13,9.90
2015,09,23,06,14,9.90
2015,09,23,06,15,9.90
2015,09,23,06,16,9.90
2015,09,23,06,17,9.90
2015,09,23,06,18,9.90
2015,09,23,06,19,9.90
2015,09,23,06,20,9.90
2015,09,23,06,21,9.90
2015,09,23,06,22,9.90
2015,09,23,06,23,9.90
2015,09,23,06,24,9.90
2015,09,23,06,25,9.90
2015,09,23,06,26,9.90
2015,09,23,06,27,9.90
2015,09,23,06,28,9.90
2015,09,23,06,29,9.90
2015,09,23,06,30,9.90
2015,09,23,06,31,9.90
2015,09,23,06,32,9.90
2015,09,23,06,33,9.90
2015,09,23,06,34,9.90
2015,09,23,06,35,9.90
2015,09,23,06,36,9.90
2015,09,23,06,37,9.90
2015,09,23,06,38,9.90
2015,09,23,06,39,9.90
2015,09,23,06,40,9.90
2015,09,23,06,41,9.90
2015,09,23,06,42,9.90
2015,09,23,06,43,9.90
2015,09,23,06,44,9.90
2015,09,23,06,45,9.90
2015,09,23,06,46,9.90
2015,09,23,06,47,9.90
2015,09,23,06,48,9.90
2015,09,23,06,49,9.90
2015,09,23,06,50,10.00
2015,09,23,06,51,10.00
2015,09,23,06,52,10.00
2015,09,23,06,53,10.10
2015,09,23,06,54,10.10
2015,09,23,06,55,10.10
2015,09,23,06,56,10.10
2015,09,23,06,57,10.10
2015,09,23,06,58,10.20
2015,09,23,06,59,10.10
2015,09,23,07,00,10.20
2015,09,23,07,01,10.20
2015,09,23,07,02,10.20
2015,09,23,07,03,10.20
2015,09,23,07,04,10.20
2015,09,23,07,05,10.20
2015,09,23,07,06,10.20
2015,09,23,07,07,10.20
2015,09,23,07,08,10.30
2015,09,23,07,09,10.30
2015,09,23,07,10,10.30
2015,09,23,07,11,10.30
2015,09,23,07,12,10.30
2015,09,23,07,13,10.30
2015,09,23,07,14,10.30
2015,09,23,07,15,10.30
2015,09,23,07,16,10.40
2015,09,23,07,17,10.40
2015,09,23,07,18,10.40
2015,09,23,07,19,10.40
2015,09,23,07,20,10.40
2015,09,23,07,21,10.40
2015,09,23,07,22,10.40
2015,09,23,07,23,10.40
2015,09,23,07,24,10.50
2015,09,23,07,25,10.50
2015,09,23,07,26,10.50
2015,09,23,07,27,10.50
2015,09,23,07,28,10.60
2015,09,23,07,29,10.60
2015,09,23,07,30,10.60
2015,09,23,07,31,10.60
2015,09,23,07,32,10.60
2015,09,23,07,33,10.60
2015,09,23,07,34,10.60
2015,09,23,07,35,10.60
2015,09,23,07,36,10.60
2015,09,23,07,37,10.70
2015,09,23,07,38,10.70
2015,09,23,07,39,10.70
2015,09,23,07,40,10.70
2015,09,23,07,41,10.70
2015,09,23,07,42,10.70
2015,09,23,07,43,10.80
2015,09,23,07,44,10.80
2015,09,23,07,45,10.80
2015,09,23,07,46,10.80
2015,09,23,07,47,10.80
2015,09,23,07,48,10.80
2015,09,23,07,49,10.80
2015,09,23,07,50,10.80
2015,09,23,07,51,10.90
2015,09,23,07,52,10.90
2015,09,23,07,53,10.90
2015,09,23,07,54,10.90
2015,09,23,07,55,10.90
2015,09,23,07,56,11.00
2015,09,23,07,57,11.00
2015,09,23,07,58,11.00
2015,09,23,07,59,11.10
2015,09,23,08,00,11.10
2015,09,23,08,01,11.20
2015,09,23,08,02,11.20
2015,09,23,08,03,11.20
2015,09,23,08,04,11.20
2015,09,23,08,05,11.20
2015,09,23,08,06,11.30
2015,09,23,08,07,11.30
2015,09,23,08,08,11.30
2015,09,23,08,09,11.30
2015,09,23,08,10,11.30
2015,09,23,08,11,11.30
2015,09,23,08,12,11.30
2015,09,23,08,13,11.30
2015,09,23,08,14,11.30
2015,09,23,08,15,11.30
2015,09,23,08,16,11.40
2015,09,23,08,17,11.40
2015,09,23,08,18,11.40
2015,09,23,08,19,11.40
2015,09,23,08,20,11.40
2015,09,23,08,21,11.50
2015,09,23,08,22,11.50
2015,09,23,08,23,11.50
2015,09,23,08,24,11.60
2015,09,23,08,25,11.60
2015,09,23,08,26,11.60
2015,09,23,08,27,11.60
2015,09,23,08,28,11.70
2015,09,23,08,29,11.70
2015,09,23,08,30,11.80
2015,09,23,08,31,11.80
2015,09,23,08,32,11.80
2015,09,23,08,33,11.90
2015,09,23,08,34,11.90
2015,09,23,08,35,12.00
2015,09,23,08,36,12.00
2015,09,23,08,37,12.10
2015,09,23,08,38,12.10
2015,09,23,08,39,12.10
2015,09,23,08,40,12.20
2015,09,23,08,41,12.20
2015,09,23,08,42,12.20
2015,09,23,08,43,12.20
2015,09,23,08,44,12.30
2015,09,23,08,45,12.30
2015,09,23,08,46,12.30
2015,09,23,08,47,12.40
2015,09,23,08,48,12.40
2015,09,23,08,49,12.40
2015,09,23,08,50,12.40
2015,09,23,08,51,12.50
2015,09,23,08,52,12.50
2015,09,23,08,53,12.60
2015,09,23,08,54,12.60
2015,09,23,08,55,12.60
2015,09,23,08,56,12.60
2015,09,23,08,57,12.70
2015,09,23,08,58,12.70
2015,09,23,08,59,12.70
2015,09,23,09,00,12.70
2015,09,23,09,01,12.70
2015,09,23,09,02,12.80
2015,09,23,09,03,12.80
2015,09,23,09,04,12.80
2015,09,23,09,05,12.80
2015,09,23,09,06,12.90
2015,09,23,09,07,12.90
2015,09,23,09,08,12.90
2015,09,23,09,09,13.00
2015,09,23,09,10,13.10
2015,09,23,09,11,13.10
2015,09,23,09,12,13.10
2015,09,23,09,13,13.20
2015,09,23,09,14,13.20
2015,09,23,09,15,13.20
2015,09,23,09,16,13.20
2015,09,23,09,17,13.30
2015,09,23,09,18,13.30
2015,09,23,09,19,13.30
2015,09,23,09,20,13.30
2015,09,23,09,21,13.30
2015,09,23,09,22,13.40
2015,09,23,09,23,13.40
2015,09,23,09,24,13.40
2015,09,23,09,25,13.40
2015,09,23,09,26,13.50
2015,09,23,09,27,13.50
2015,09,23,09,28,13.60
2015,09,23,09,29,13.60
2015,09,23,09,30,13.60
2015,09,23,09,31,13.70
2015,09,23,09,32,13.70
2015,09,23,09,33,13.70
2015,09,23,09,34,13.70
2015,09,23,09,35,13.70
2015,09,23,09,36,13.80
2015,09,23,09,37,13.80
2015,09,23,09,38,13.80
2015,09,23,09,39,13.90
2015,09,23,09,40,13.90
2015,09,23,09,41,14.00
2015,09,23,09,42,14.00
2015,09,23,09,43,14.10
2015,09,23,09,44,14.20
2015,09,23,09,45,14.20
2015,09,23,09,46,14.30
2015,09,23,09,47,14.40
2015,09,23,09,48,14.50
2015,09,23,09,49,14.50
2015,09,23,09,50,14.60
2015,09,23,09,51,14.70
2015,09,23,09,52,14.70
2015,09,23,09,53,14.70
2015,09,23,09,54,14.70
2015,09,23,09,55,14.70
2015,09,23,09,56,14.70
2015,09,23,09,57,14.70
2015,09,23,09,58,14.80
2015,09,23,09,59,14.80
2015,09,23,10,00,14.80
2015,09,23,10,01,14.90
2015,09,23,10,02,14.90
2015,09,23,10,03,15.00
2015,09,23,10,04,15.00
2015,09,23,10,05,15.10
2015,09,23,10,06,15.10
2015,09,23,10,07,15.00
2015,09,23,10,08,15.00
2015,09,23,10,09,15.00
2015,09,23,10,10,15.00
2015,09,23,10,11,15.00
2015,09,23,10,12,15.00
2015,09,23,10,13,15.00
2015,09,23,10,14,15.00
2015,09,23,10,15,15.10
2015,09,23,10,16,15.10
2015,09,23,10,17,15.10
2015,09,23,10,18,15.10
2015,09,23,10,19,15.10
2015,09,23,10,20,15.20
2015,09,23,10,21,15.20
2015,09,23,10,22,15.30
2015,09,23,10,23,15.30
2015,09,23,10,24,15.40
2015,09,23,10,25,15.40
2015,09,23,10,26,15.50
2015,09,23,10,27,15.60
2015,09,23,10,28,15.60
2015,09,23,10,29,15.60
2015,09,23,10,30,15.60
2015,09,23,10,31,15.60
2015,09,23,10,32,15.60
2015,09,23,10,33,15.70
2015,09,23,10,34,15.70
2015,09,23,10,35,15.70
2015,09,23,10,36,15.70
2015,09,23,10,37,15.70
2015,09,23,10,38,15.70
2015,09,23,10,39,15.80
2015,09,23,10,40,15.80
2015,09,23,10,41,15.80
2015,09,23,10,42,15.80
2015,09,23,10,43,15.80
2015,09,23,10,44,15.80
2015,09,23,10,45,15.80
2015,09,23,10,46,15.80
2015,09,23,10,47,15.90
2015,09,23,10,48,15.90
2015,09,23,10,49,15.90
2015,09,23,10,50,16.00
2015,09,23,10,51,16.00
2015,09,23,10,52,16.10
2015,09,23,10,53,16.10
2015,09,23,10,54,16.20
2015,09,23,10,55,16.20
2015,09,23,10,56,16.30
2015,09,23,10,57,16.30
2015,09,23,10,58,16.30
2015,09,23,10,59,16.40
2015,09,23,11,00,16.40
2015,09,23,11,01,16.50
2015,09,23,11,02,16.40
2015,09,23,11,03,16.40
2015,09,23,11,04,16.30
2015,09,23,11,05,16.30
2015,09,23,11,06,16.30
2015,09,23,11,07,16.30
2015,09,23,11,08,16.30
2015,09,23,11,09,16.30
2015,09,23,11,10,16.30
2015,09,23,11,11,16.20
2015,09,23,11,12,16.20
2015,09,23,11,13,16.20
2015,09,23,11,14,16.20
2015,09,23,11,15,16.20
2015,09,23,11,16,16.30
2015,09,23,11,17,16.30
2015,09,23,11,18,16.30
2015,09,23,11,19,16.30
2015,09,23,11,20,16.30
2015,09,23,11,21,16.30
2015,09,23,11,22,16.30
2015,09,23,11,23,16.30
2015,09,23,11,24,16.30
2015,09,23,11,25,16.40
2015,09,23,11,26,16.40
2015,09,23,11,27,16.40
2015,09,23,11,28,16.40
2015,09,23,11,29,16.40
2015,09,23,11,30,16.40
2015,09,23,11,31,16.40
2015,09,23,11,32,16.40
2015,09,23,11,33,16.40
2015,09,23,11,34,16.30
2015,09,23,11,35,16.30
2015,09,23,11,36,16.30
2015,09,23,11,37,16.30
2015,09,23,11,38,16.30
2015,09,23,11,39,16.30
2015,09,23,11,40,16.30
2015,09,23,11,41,16.30
2015,09,23,11,42,16.30
2015,09,23,11,43,16.30
2015,09,23,11,44,16.30
2015,09,23,11,45,16.30
2015,09,23,11,46,16.40
2015,09,23,11,47,16.40
2015,09,23,11,48,16.50
2015,09,23,11,49,16.50
2015,09,23,11,50,16.50
2015,09,23,11,51,16.40
2015,09,23,11,52,16.40
2015,09,23,11,53,16.40
2015,09,23,11,54,16.40
2015,09,23,11,55,16.40
2015,09,23,11,56,16.50
2015,09,23,11,57,16.50
2015,09,23,11,58,16.60
2015,09,23,11,59,16.60
2015,09,23,12,00,16.60
2015,09,23,12,01,16.60
2015,09,23,12,02,16.60
2015,09,23,12,03,16.60
2015,09,23,12,04,16.60
2015,09,23,12,05,16.70
2015,09,23,12,06,16.70
2015,09,23,12,07,16.70
2015,09,23,12,08,16.70
2015,09,23,12,09,16.80
2015,09,23,12,10,16.80
2015,09,23,12,11,16.90
2015,09,23,12,12,16.90
2015,09,23,12,13,16.90
2015,09,23,12,14,16.90
2015,09,23,12,15,16.90
2015,09,23,12,16,16.90
2015,09,23,12,17,16.90
2015,09,23,12,18,17.00
2015,09,23,12,19,17.10
2015,09,23,12,20,17.10
2015,09,23,12,21,17.20
2015,09,23,12,22,17.20
2015,09,23,12,23,17.20
2015,09,23,12,24,17.30
2015,09,23,12,25,17.40
2015,09,23,12,26,17.50
2015,09,23,12,27,17.60
2015,09,23,12,28,17.70
2015,09,23,12,29,17.80
2015,09,23,12,30,17.80
2015,09,23,12,31,17.90
2015,09,23,12,32,17.90
2015,09,23,12,33,18.00
2015,09,23,12,34,18.00
2015,09,23,12,35,18.00
2015,09,23,12,36,18.10
2015,09,23,12,37,18.10
2015,09,23,12,38,18.10
2015,09,23,12,39,18.10
2015,09,23,12,40,18.10
2015,09,23,12,41,18.10
2015,09,23,12,42,18.10
2015,09,23,12,43,18.10
2015,09,23,12,44,18.10
2015,09,23,12,45,18.20
2015,09,23,12,46,18.20
2015,09,23,12,47,18.20
2015,09,23,12,48,18.30
2015,09,23,12,49,18.30
2015,09,23,12,50,18.30
2015,09,23,12,51,18.30
2015,09,23,12,52,18.40
2015,09,23,12,53,18.40
2015,09,23,12,54,18.50
2015,09,23,12,55,18.50
2015,09,23,12,56,18.50
2015,09,23,12,57,18.60
2015,09,23,12,58,18.60
2015,09,23,12,59,18.60
2015,09,23,13,00,18.60
2015,09,23,13,01,18.60
2015,09,23,13,02,18.70
2015,09,23,13,03,18.70
2015,09,23,13,04,18.70
2015,09,23,13,05,18.70
2015,09,23,13,06,18.70
2015,09,23,13,07,18.70
2015,09,23,13,08,18.70
2015,09,23,13,09,18.70
2015,09,23,13,10,18.80
2015,09,23,13,11,18.80
2015,09,23,13,12,18.90
2015,09,23,13,13,18.90
2015,09,23,13,14,18.90
2015,09,23,13,15,19.00
2015,09,23,13,16,19.00
2015,09,23,13,17,19.00
2015,09,23,13,18,19.00
2015,09,23,13,19,18.90
2015,09,23,13,20,18.90
2015,09,23,13,21,18.80
2015,09,23,13,22,18.90
2015,09,23,13,23,18.90
2015,09,23,13,24,18.90
2015,09,23,13,25,19.00
2015,09,23,13,26,19.00
2015,09,23,13,27,19.10
2015,09,23,13,28,19.20
2015,09,23,13,29,19.20
2015,09,23,13,30,19.30
2015,09,23,13,31,19.20
2015,09,23,13,32,19.20
2015,09,23,13,33,19.10
2015,09,23,13,34,19.10
2015,09,23,13,35,19.10
2015,09,23,13,36,19.10
2015,09,23,13,37,19.00
2015,09,23,13,38,19.00
2015,09,23,13,39,19.00
2015,09,23,13,40,19.00
2015,09,23,13,41,19.00
2015,09,23,13,42,18.90
2015,09,23,13,43,18.90
2015,09,23,13,44,18.90
2015,09,23,13,45,18.80
2015,09,23,13,46,18.80
2015,09,23,13,47,18.90
2015,09,23,13,48,18.90
2015,09,23,13,49,18.90
2015,09,23,13,50,19.00
2015,09,23,13,51,19.10
2015,09,23,13,52,19.20
2015,09,23,13,53,19.20
2015,09,23,13,54,19.20
2015,09,23,13,55,19.30
2015,09,23,13,56,19.30
2015,09,23,13,57,19.30
2015,09,23,13,58,19.30
2015,09,23,13,59,19.20
2015,09,23,14,00,19.30
2015,09,23,14,01,19.30
2015,09,23,14,02,19.30
2015,09,23,14,03,19.30
2015,09,23,14,04,19.30
2015,09,23,14,05,19.30
2015,09,23,14,06,19.40
2015,09,23,14,07,19.40
2015,09,23,14,08,19.50
2015,09,23,14,09,19.50
2015,09,23,14,10,19.60
2015,09,23,14,11,19.60
2015,09,23,14,12,19.60
2015,09,23,14,13,19.60
2015,09,23,14,14,19.50
2015,09,23,14,15,19.50
2015,09,23,14,16,19.60
2015,09,23,14,17,19.60
2015,09,23,14,18,19.60
2015,09,23,14,19,19.70
2015,09,23,14,20,19.70
2015,09,23,14,21,19.80
2015,09,23,14,22,19.80
2015,09,23,14,23,19.80
2015,09,23,14,24,19.80
2015,09,23,14,25,19.80
2015,09,23,14,26,19.80
2015,09,23,14,27,19.80
2015,09,23,14,28,19.80
2015,09,23,14,29,19.80
2015,09,23,14,30,19.90
2015,09,23,14,31,19.90
2015,09,23,14,32,19.90
2015,09,23,14,33,19.80
2015,09,23,14,34,19.90
2015,09,23,14,35,19.90
2015,09,23,14,36,19.90
2015,09,23,14,37,19.90
2015,09,23,14,38,19.90
2015,09,23,14,39,19.90
2015,09,23,14,40,19.80
2015,09,23,14,41,19.80
2015,09,23,14,42,19.70
2015,09,23,14,43,19.70
2015,09,23,14,44,19.70
2015,09,23,14,45,19.70
2015,09,23,14,46,19.70
2015,09,23,14,47,19.70
2015,09,23,14,48,19.70
2015,09,23,14,49,19.70
2015,09,23,14,50,19.60
2015,09,23,14,51,19.60
2015,09,23,14,52,19.50
2015,09,23,14,53,19.40
2015,09,23,14,54,19.40
2015,09,23,14,55,19.40
2015,09,23,14,56,19.40
2015,09,23,14,57,19.50
2015,09,23,14,58,19.50
2015,09,23,14,59,19.50
2015,09,23,15,00,19.60
2015,09,23,15,01,19.60
2015,09,23,15,02,19.60
2015,09,23,15,03,19.70
2015,09,23,15,04,19.60
2015,09,23,15,05,19.60
2015,09,23,15,06,19.50
2015,09,23,15,07,19.40
2015,09,23,15,08,19.40
2015,09,23,15,09,19.40
2015,09,23,15,10,19.50
2015,09,23,15,11,19.50
2015,09,23,15,12,19.50
2015,09,23,15,13,19.50
2015,09,23,15,14,19.50
2015,09,23,15,15,19.50
2015,09,23,15,16,19.50
2015,09,23,15,17,19.50
2015,09,23,15,18,19.50
2015,09,23,15,19,19.50
2015,09,23,15,20,19.50
2015,09,23,15,21,19.60
2015,09,23,15,22,19.60
2015,09,23,15,23,19.60
2015,09,23,15,24,19.50
2015,09,23,15,25,19.50
2015,09,23,15,26,19.50
2015,09,23,15,27,19.50
2015,09,23,15,28,19.50
2015,09,23,15,29,19.40
2015,09,23,15,30,19.40
2015,09,23,15,31,19.40
2015,09,23,15,32,19.30
2015,09,23,15,33,19.30
2015,09,23,15,34,19.30
2015,09,23,15,35,19.40
2015,09,23,15,36,19.40
2015,09,23,15,37,19.40
2015,09,23,15,38,19.40
2015,09,23,15,39,19.30
2015,09,23,15,40,19.30
2015,09,23,15,41,19.30
2015,09,23,15,42,19.20
2015,09,23,15,43,19.20
2015,09,23,15,44,19.20
2015,09,23,15,45,19.10
2015,09,23,15,46,19.10
2015,09,23,15,47,19.10
2015,09,23,15,48,19.10
2015,09,23,15,49,19.10
2015,09,23,15,50,19.00
2015,09,23,15,51,19.00
2015,09,23,15,52,19.00
2015,09,23,15,53,19.10
2015,09,23,15,54,19.10
2015,09,23,15,55,19.10
2015,09,23,15,56,19.20
2015,09,23,15,57,19.20
2015,09,23,15,58,19.20
2015,09,23,15,59,19.20
2015,09,23,16,00,19.30
2015,09,23,16,01,19.30
2015,09,23,16,02,19.40
2015,09,23,16,03,19.30
2015,09,23,16,04,19.30
2015,09,23,16,05,19.30
2015,09,23,16,06,19.30
2015,09,23,16,07,19.30
2015,09,23,16,08,19.30
2015,09,23,16,09,19.30
2015,09,23,16,10,19.30
2015,09,23,16,11,19.30
2015,09,23,16,12,19.30
2015,09,23,16,13,19.30
2015,09,23,16,14,19.40
2015,09,23,16,15,19.40
2015,09,23,16,16,19.40
2015,09,23,16,17,19.40
2015,09,23,16,18,19.40
2015,09,23,16,19,19.40
2015,09,23,16,20,19.40
2015,09,23,16,21,19.40
2015,09,23,16,22,19.40
2015,09,23,16,23,19.40
2015,09,23,16,24,19.40
2015,09,23,16,25,19.40
2015,09,23,16,26,19.40
2015,09,23,16,27,19.40
2015,09,23,16,28,19.40
2015,09,23,16,29,19.40
2015,09,23,16,30,19.40
2015,09,23,16,31,19.40
2015,09,23,16,32,19.40
2015,09,23,16,33,19.40
2015,09,23,16,34,19.40
2015,09,23,16,35,19.40
2015,09,23,16,36,19.40
2015,09,23,16,37,19.40
2015,09,23,16,38,19.40
2015,09,23,16,39,19.30
2015,09,23,16,40,19.30
2015,09,23,16,41,19.30
2015,09,23,16,42,19.20
2015,09,23,16,43,19.20
2015,09,23,16,44,19.10
2015,09,23,16,45,19.00
2015,09,23,16,46,19.00
2015,09,23,16,47,19.00
2015,09,23,16,48,19.00
2015,09,23,16,49,19.00
2015,09,23,16,50,19.00
2015,09,23,16,51,19.00
2015,09,23,16,52,19.00
2015,09,23,16,53,19.10
2015,09,23,16,54,19.10
2015,09,23,16,55,19.10
2015,09,23,16,56,19.10
2015,09,23,16,57,19.10
2015,09,23,16,58,19.10
2015,09,23,16,59,19.10
2015,09,23,17,00,19.10
2015,09,23,17,01,19.10
2015,09,23,17,02,19.10
2015,09,23,17,03,19.10
2015,09,23,17,04,19.10
2015,09,23,17,05,19.10
2015,09,23,17,06,19.10
2015,09,23,17,07,19.10
2015,09,23,17,08,19.10
2015,09,23,17,09,19.10
2015,09,23,17,10,19.10
2015,09,23,17,11,19.10
2015,09,23,17,12,19.10
2015,09,23,17,13,19.10
2015,09,23,17,14,19.10
2015,09,23,17,15,19.10
2015,09,23,17,16,19.10
2015,09,23,17,17,19.10
2015,09,23,17,18,19.10
2015,09,23,17,19,19.20
2015,09,23,17,20,19.20
2015,09,23,17,21,19.20
2015,09,23,17,22,19.20
2015,09,23,17,23,19.20
2015,09,23,17,24,19.20
2015,09,23,17,25,19.20
2015,09,23,17,26,19.20
2015,09,23,17,27,19.20
2015,09,23,17,28,19.20
2015,09,23,17,29,19.20
2015,09,23,17,30,19.20
2015,09,23,17,31,19.20